Regional Weather Roundup
Issued by NWS Memphis, TN

Home | Current Version | Previous Version | Text Only | Print | Product List | Glossary On
Versions: 1 2 3 4 5 6 7 8 9 10 11 12 13 14 15 16 17 18 19 20 21 22 23 24 25 26 27 28 29 30 31 32 33 34 35 36 37 38 39 40 41 42 43 44 45 46 47 48 49 50
000
ASUS44 KMEG 050810
RWRMEG
MEMPHIS CWA HOURLY WEATHER ROUNDUP
NATIONAL WEATHER SERVICE MEMPHIS TN
300 AM CDT SAT SEP 05 2015

...WEST TENNESSEE...

CITY           SKY/WX    TMP DP  RH WIND       PRES   REMARKS
MEMPHIS INTL   CLEAR     79  72  79 E5        30.00F
NWS MEMPHIS      N/A     74 N/A N/A MISG        N/A
JACKSON        CLEAR     70  69  97 CALM      30.02S FOG
LEXINGTON      CLEAR     66  66 100 CALM      30.02S
DYERSBURG      CLEAR     72  70  94 CALM      30.03S
UNION CITY     CLEAR    N/A N/A N/A CALM      30.01F
PARIS          CLEAR     68  66  94 CALM      30.04S


...EASTERN ARKANSAS...

CITY           SKY/WX    TMP DP  RH WIND       PRES   REMARKS
JONESBORO      CLEAR     71  69  93 CALM      30.01S
WEST MEMPHIS   CLEAR     74  74 100 CALM      29.99S
BATESVILLE     CLEAR     72  70  94 NW5       30.02S
NEWPORT        CLEAR     75  73  93 CALM      30.02S
WALNUT RIDGE   CLEAR     73  70  88 N3        30.02R
BLYTHEVILLE    CLEAR     73  71  93 E7        30.01S
SEARCY         CLEAR     74  71  91 CALM      30.02S
STUTTGART      CLEAR     73  66  78 NE5       30.00S
PINE BLUFF     CLEAR     76  69  79 CALM      29.98F
MONTICELLO     CLEAR     76  72  87 CALM      29.97S


...NORTH MISSISSIPPI...

CITY           SKY/WX    TMP DP  RH WIND       PRES   REMARKS
TUPELO         CLEAR     73  70  90 NE6       30.00F
OXFORD         CLEAR     72  70  94 CALM      30.02F
OLIVE BRANCH   CLEAR     73  73 100 CALM      30.01F
TUNICA           N/A    N/A N/A N/A MISG        N/A
CLARKSDALE       N/A     72  72 100 CALM      30.00S
CORINTH        FOG       70  68  94 CALM      30.01S VSB 1/2
GREENWOOD      CLEAR     76  69  79 E3        29.98S
COLUMBUS       CLEAR     73  71  95 CALM      29.98F
STARKVILLE     FAIR      72  70  94 CALM      30.00S
GOLDEN TRIANGL CLEAR     73  66  78 CALM      29.99S


...SOUTHEAST MISSOURI...

CITY           SKY/WX    TMP DP  RH WIND       PRES   REMARKS
WEST PLAINS    CLEAR     69  66  90 CALM      30.08S
POPLAR BLUFF   CLEAR     69  68  96 CALM      30.02S
CAPE GIRARDEAU CLEAR     69  69 100 CALM      30.03S FOG


...NORTHWEST ALABAMA...

CITY           SKY/WX    TMP DP  RH WIND       PRES   REMARKS
MUSCLE SHOALS  CLEAR     70  67  90 CALM      30.03F


...MIDDLE TENNESSEE...

CITY           SKY/WX    TMP DP  RH WIND       PRES   REMARKS
NASHVILLE      CLEAR     72  67  84 CALM      30.04S
CLARKSVILLE    CLEAR     69  66  90 CALM      30.04S FOG
COLUMBIA       CLEAR    N/A N/A N/A CALM      30.03S


...WESTERN KENTUCKY...

CITY           SKY/WX    TMP DP  RH WIND       PRES   REMARKS
PADUCAH        CLEAR     70  68  93 CALM      30.02F FOG
FORT CAMPBELL  CLEAR     71  67  87 CALM      30.04S


...CENTRAL ARKANSAS...

CITY           SKY/WX    TMP DP  RH WIND       PRES   REMARKS
LITTLE ROCK    CLEAR     76  70  82 CALM      30.00S


SKY/WX REPORTED AS FAIR MEANS FEW OR NO CLOUDS BELOW
12 THOUSAND FEET.



USA.gov is the U.S. government's official web portal to all federal, state and local government web resources and services.